星链-36581(STARLINK-36581)

导读 | 豆包AI

STARLINK-36581是美国太空探索技术公司(SpaceX)星链星座的一颗卫星,星链项目旨在构建全球卫星互联网通信系统,为全球提供高速低延迟网络服务。该卫星于2026年1月22日发射升空,入轨后将补充完善星链星座的网络覆盖能力,提升星座整体服务性能,进一步推动全球卫星互联网的部署进程。

基本信息
目录编号:
67543
目录名称:
STARLINK-36581
国际标识:
2026-014M
轨道中心:
EARTH
卫星名称:
星链-36581
卫星全名:
星链-36581(STARLINK-36581)
卫星状态:
在轨 (已飞行123 天)
发射日期:
2026-01-22 UTC
国别 :
美国 (US)
星等 :
--
轨道信息
数据来源 国际轨道数据
星历时间: 2026-05-24T10:51:11+0800
1天前
查看轨道信息
半长轴: 6843.627km
偏心率: 0.0001217
轨道倾角: 97.287°
近地点辐角 102.651°
升交点赤经 31.187°
平近点角 257.487°
近地点: 464.657km
远地点: 466.323km
周期: 93.905分钟
每日圈数: 15.334629
详细信息
固有亮度:
5
最大亮度:
2.5
卫星平台:
Starlink V1.0
覆盖范围:
全球
运营商:
太空探索技术公司
运营商所在国:
美国
制造商(研发单位):
太空探索技术公司
制造商所在国:
美国
使用方式:
暂无
卫星简介
Starlink 计划是 SpaceX 推出的全球卫星互联网项目,通过发射低轨道卫星,为全球尤其是偏远地区提供高速、低延迟的互联网服务。自 2019 年起,Starlink 已部署数千颗卫星,旨在缩小全球数字鸿沟,推动互联网普及。该项目还为军事、航空等行业提供通信支持,带来广泛经济效益。
2D轨道图
3D轨道图
轨道高度分析图
轨道倾角分析图
轨道综合分析图
查看轨道综合分析图